Flag for Norway Weather past 2 weeks in Longyearbyen, Svalbard, Norway

Now
45 °F

Scattered clouds.


Feels Like: 40 °F
Forecast: 43 / 48 °F
Wind: 8 mph from West

Location: Svalbard Lufthavn

Current Time: Jul 5, 2015 at 9:33:47 PM

Latest Report: Jul 5, 2015 at 8:50 PM


Visibility: N/A

Pressure: 30.33 "Hg

Humidity: 76%

Dew point: 37 °F

Location of LongyearbyenLocation

Historic Weather in Longyearbyen — Graph

°F

Longyearbyen temperature yesterday

Maximum temperature yesterday: 48 °F (at 8:50 AM)
Minimum temperature yesterday: 43 °F (at 12:50 AM)
Average temperature yesterday: 46 °F

Past Weeks' High & Low Weather Summary

 TemperatureHumidityPressure
High48 °F (Jul 4, 8:50 AM)93% (Jun 27, 3:50 AM)30.30 "Hg (Jun 27, 3:50 AM)
Low36 °F (Jun 29, 2:50 AM)54% (Jul 4, 8:50 AM)29.86 "Hg (Jun 27, 6:57 AM)
Average42 °F72%30.06 "Hg
* Reported Jun 20 7:50 PM — Jul 5 7:50 PM, Longyearbyen, Weather by CustomWeather, © 2015

Note: Actual official high and low records may vary slightly from our data, if they occured in-between our weather recording intervals... More about our weather records

Advertising

Longyearbyen weather history for previous 24 hours

 ConditionsComfort  
Time TempWeatherWind HumidityBarometerVisibility
7:50 PM
Sun, Jul 5
43 °FScattered clouds.9 mph81%30.30 "HgN/A
6:50 PM45 °FPartly sunny.10 mph76%30.30 "HgN/A
5:50 PM43 °FBroken clouds.7 mph81%30.30 "HgN/A
4:50 PM43 °FScattered showers. Partly sunny.7 mph81%30.30 "HgN/A
3:50 PM43 °FPartly sunny.8 mph81%30.30 "HgN/A
2:50 PM45 °FScattered showers. Partly sunny.10 mph76%30.30 "HgN/A
1:50 PM45 °FScattered showers. Broken clouds.9 mph71%30.27 "HgN/A
12:50 PM45 °FScattered showers. Broken clouds.10 mph76%30.27 "HgN/A
12:20 PM45 °FBroken clouds.10 mph76%30.27 "HgN/A
10:50 AM43 °FBroken clouds.12 mph87%30.27 "HgN/A
9:50 AM43 °FScattered showers. Broken clouds.10 mph81%30.27 "HgN/A
8:50 AM43 °FBroken clouds.12 mph81%30.24 "HgN/A
7:50 AM43 °FBroken clouds.10 mph81%30.24 "HgN/A
6:50 AM45 °FLight rain. Broken clouds.10 mph81%30.24 "HgN/A
5:50 AM43 °FBroken clouds.10 mph87%30.24 "HgN/A
4:50 AM43 °FBroken clouds.9 mph87%30.24 "HgN/A
3:50 AM43 °FBroken clouds.9 mph87%30.24 "HgN/A
2:50 AM43 °FBroken clouds.5 mph76%30.24 "HgN/A
1:50 AM45 °FBroken clouds.6 mph71%30.21 "HgN/A
12:50 AM45 °FBroken clouds.3 mph71%30.21 "HgN/A
11:50 PM
Sat, Jul 4
45 °FBroken clouds.5 mph71%30.21 "HgN/A
10:50 PM46 °FBroken clouds.12 mph66%30.21 "HgN/A
9:50 PM46 °FPartly sunny.10 mph66%30.21 "HgN/A
Weather by CustomWeather, © 2015

See weather overviewHow to use our weather pages